STARLINK-34808

Last updated on Mon Oct 20 2025 00:02:06 GMT+0000 (Coordinated Universal Time)

1 65745U 25216M 25292.23592416 .00167613 00000+0 29518-2 0 9995 2 65745 53.1587 272.2507 0001924 101.5251 258.5975 15.49364296 4828
UTC large
Height (km)
Speed (km/s)
/
Latitude / Longitude
Inclination (degrees)
Orbital Period (minutes)
Azimuth
Elevation
Range (km)
Doppler Factor

Next 0 passes for location: London (51.5072 / 0.1276)

Sorry there are no passes over London.